Wetbulb
49.86 49.86 49.79 49.72 49.72 49.87 49.85 50.27 50.17 50.38 50.50 50.48 50.56 50.41 50.44 49.84 49.67 48.46 46.91 49.47 44.19 39.42 40.33 44.22 44.57 40.17 39.78 41.91 39.60 43.03 41.13 43.69 44.25 45.24 46.23 46.80 47.32 49.40 48.97 52.48 52.34 51.29 50.11 49.34 50.84 48.49 46.52 57.87 58.37 54.90 59.46 62.60 62.86 63.36
49.64 49.82 49.92 49.87 49.73 49.73 49.68 49.33 50.06 50.28 50.27 50.29 50.18 50.07 49.67 49.39 48.59 49.00 44.57 51.14 51.45 42.64 40.66 47.28 47.38 47.98 46.58 45.42 42.77 43.28 41.43 41.37 43.28 44.13 48.10 49.67 49.67 52.82 50.65 46.91 56.01 50.42 53.76 51.63 52.46 52.13 57.05 58.45 57.54 61.06 63.23 62.54 63.17 64.02
49.51 49.64 49.77 49.91 49.58 49.80 49.59 49.20 49.64 49.94 50.14 50.09 49.73 49.67 49.39 48.86 48.80 48.95 46.70 49.08 47.19 42.25 42.11 44.01 44.20 48.63 50.04 48.61 50.04 41.54 43.32 44.64 46.16 48.17 44.79 47.35 46.84 53.54 49.51 51.32 53.49 55.63 58.22 54.58 54.53 55.36 56.60 57.25 59.13 60.84 61.88 62.09 63.41 64.32
49.52 49.38 50.00 50.38 50.16 49.94 49.79 49.79 49.66 49.66 50.02 49.22 49.07 49.24 49.27 48.89 48.76 48.70 46.81 49.03 46.64 42.58 36.81 41.84 49.47 47.08 49.98 50.57 48.23 48.46 46.82 47.78 47.36 47.37 46.36 45.55 47.24 54.52 52.91 54.49 54.81 54.80 56.41 55.26 54.52 55.41 56.51 57.11 57.31 58.60 59.11 61.23 62.39 63.28
49.36 49.64 49.79 49.55 49.49 49.49 49.51 49.61 49.52 49.44 48.72 48.53 48.57 49.17 48.98 49.09 49.06 50.42 50.07 49.46 49.32 42.90 37.50 39.61 45.13 49.69 50.48 48.42 48.21 48.04 46.62 43.54 43.21 42.59 46.01 45.19 50.20 51.11 55.39 54.12 48.33 49.85 52.24 54.22 52.18 55.55 54.35 51.24 54.47 56.44 56.71 58.27 60.13 60.54
49.73 49.61 49.74 49.41 49.15 49.33 49.49 49.57 49.69 49.09 48.70 48.99 49.09 49.39 48.72 49.13 49.03 48.05 42.86 47.34 49.43 47.82 39.78 37.34 46.90 47.31 50.13 49.73 47.53 46.91 47.53 45.43 45.13 45.37 47.22 46.33 50.97 51.29 48.09 44.98 47.59 51.18 54.93 56.41 55.90 55.87 52.46 52.04 52.91 55.09 54.45 55.89 57.02 57.37
49.42 49.05 49.34 49.22 49.57 49.37 49.48 49.62 49.38 48.86 48.69 49.10 49.17 49.27 49.10 49.25 48.77 44.60 41.68 46.55 47.47 49.05 39.37 36.79 42.58 49.34 50.24 49.75 49.12 48.05 48.99 48.09 47.48 47.67 45.79 47.20 50.27 51.41 45.66 42.72 48.23 51.63 54.02 55.11 55.50 53.48 50.31 52.33 50.52 53.47 55.04 55.98 55.85 57.24
48.99 49.10 48.93 49.43 49.29 49.17 48.96 49.12 49.26 48.96 48.66 48.60 48.91 49.20 49.51 49.79 49.29 45.97 49.84 48.76 48.95 44.40 42.13 36.52 40.29 45.20 50.59 47.61 45.99 49.34 46.38 46.22 48.50 48.62 46.50 47.74 50.23 49.35 43.14 47.38 49.61 50.84 51.64 50.62 51.31 52.73 52.62 52.84 53.17 54.07 55.49 55.88 54.27 53.81
49.65 49.39 49.40 49.85 49.71 49.37 48.92 49.02 49.25 49.19 49.24 49.41 49.41 48.78 49.45 47.53 44.09 47.39 49.27 50.33 49.06 42.69 38.00 39.30 37.87 39.32 51.43 48.83 49.23 47.82 47.91 42.77 49.81 46.89 49.52 49.54 45.28 42.74 45.87 47.46 48.77 50.43 50.05 50.52 51.23 51.30 51.92 52.41 53.11 52.48 53.20 55.05 55.48 55.74
50.04 50.23 50.06 49.79 49.63 49.41 49.56 49.61 49.51 49.76 49.82 49.39 48.93 46.73 43.33 48.38 50.52 50.89 47.72 44.10 43.55 42.72 42.33 39.85 45.54 41.61 46.65 49.25 46.57 46.58 47.96 43.61 41.66 48.09 51.31 45.21 43.69 47.86 49.20 50.38 50.54 50.10 51.93 51.99 48.36 47.52 49.27 50.86 51.70 52.35 53.01 54.25 54.85 55.85
49.96 49.82 49.94 49.90 49.64 49.79 49.67 49.80 49.40 49.50 50.31 47.79 44.48 43.91 49.72 51.31 49.68 47.17 42.27 40.49 42.21 39.95 44.15 45.10 45.53 43.30 50.40 45.13 46.84 50.95 47.00 46.59 40.09 46.11 44.72 42.56 40.02 46.61 50.23 50.34 51.95 52.71 52.79 53.40 53.98 53.63 53.12 53.72 53.40 54.31 53.95 55.43 56.54 57.32
50.10 49.88 49.80 49.71 49.46 49.84 49.97 49.77 49.70 49.27 48.18 47.28 46.61 48.14 49.29 47.53 45.15 39.79 39.80 42.17 40.02 40.43 46.85 44.87 44.99 46.09 46.64 49.67 47.76 50.16 46.53 47.78 41.35 50.23 45.92 37.57 42.97 48.38 50.11 51.30 52.80 53.93 53.57 54.06 53.94 53.07 53.76 54.24 55.07 54.49 54.52 54.46 55.95 57.60
49.71 49.55 49.65 49.88 50.05 49.99 50.03 49.79 49.73 49.61 49.61 50.68 46.37 43.26 43.12 43.61 36.32 36.65 35.37 39.01 40.44 44.39 47.59 47.29 45.51 46.88 48.99 50.07 48.75 49.24 44.06 44.15 49.37 44.56 42.61 43.41 48.05 50.07 51.46 51.83 52.85 54.07 53.78 53.54 53.16 53.62 54.16 54.79 55.81 55.65 54.87 56.09 56.35 55.86
49.50 49.43 49.21 49.50 49.57 49.92 50.28 50.42 50.34 49.26 48.63 43.36 40.22 34.47 34.74 35.28 38.23 39.76 40.78 42.44 47.01 47.81 47.77 48.33 47.71 45.92 49.94 47.39 48.41 43.59 47.84 49.84 42.66 39.44 40.22 46.32 49.40 51.31 52.03 52.30 52.38 52.21 52.61 52.90 53.56 53.81 53.75 54.62 55.37 56.54 57.18 56.96 56.88 57.24
49.43 49.23 48.98 49.22 49.04 49.86 50.53 49.30 48.56 51.30 47.41 40.16 37.58 32.48 36.46 40.78 43.88 45.87 47.49 47.78 49.20 50.02 49.39 49.37 48.17 48.32 46.89 46.11 47.29 46.63 42.84 39.81 39.88 38.95 45.08 50.85 51.89 53.16 53.05 53.35 53.51 53.84 54.13 53.66 54.33 54.43 54.53 54.97 55.06 55.82 57.64 58.75 58.59 58.69
49.40 48.87 50.40 48.84 49.62 50.29 50.06 50.45 52.21 52.23 46.82 45.02 42.83 40.50 43.99 43.23 43.45 45.36 46.01 47.09 50.51 49.61 51.42 49.20 44.99 43.65 43.71 45.15 42.23 41.44 39.48 36.19 41.11 45.11 49.15 52.35 53.72 53.97 54.92 55.10 55.19 55.69 55.73 55.39 55.57 55.65 55.71 55.88 55.95 56.23 57.31 57.90 58.69 59.15
49.67 49.48 49.69 50.12 50.09 50.39 49.22 51.37 51.64 47.25 46.41 44.04 43.59 47.16 46.11 45.52 44.37 45.04 46.94 47.54 50.98 49.71 45.90 46.87 42.18 41.19 46.77 41.13 38.36 41.06 36.56 39.01 47.16 50.05 53.33 54.23 54.55 55.27 56.24 56.35 56.22 56.58 56.62 56.34 56.54 56.78 57.10 57.24 57.14 56.61 56.00 57.41 57.76 58.59
49.85 51.23 50.52 49.96 50.72 51.90 53.38 51.88 49.41 47.12 42.90 45.71 43.14 44.42 46.57 47.57 46.28 46.84 47.37 49.24 49.11 48.54 48.67 44.95 47.07 41.46 39.66 37.33 39.13 44.45 46.48 49.55 52.11 53.43 54.47 54.89 55.51 56.22 56.50 56.55 56.98 57.19 57.01 57.18 57.32 57.12 57.24 57.11 55.23 54.91 56.50 57.64 57.66 56.11
49.69 50.59 50.23 50.26 50.54 49.84 47.70 48.52 49.61 43.13 44.25 45.62 45.73 47.03 47.14 47.41 49.04 49.47 49.48 50.03 50.37 51.59 50.62 47.33 43.64 41.27 42.37 46.10 46.47 48.77 50.17 51.54 51.76 52.65 53.82 56.00 57.02 56.83 57.06 57.69 57.34 56.87 56.24 55.24 54.26 54.74 55.59 56.25 55.63 55.34 55.12 55.49 54.62 55.32
50.02 50.26 50.25 50.69 50.88 49.99 44.93 47.01 51.11 45.47 42.70 44.38 46.63 46.05 47.12 46.90 48.79 49.38 49.56 50.02 50.05 48.48 45.83 43.49 43.87 45.80 46.54 48.13 49.94 50.46 51.54 53.05 53.88 52.85 52.89 55.99 55.30 55.92 55.01 54.58 53.66 53.73 53.63 53.81 52.75 48.45 53.30 53.29 53.72 54.25 54.20 54.47 54.35 54.31
50.73 51.82 50.84 51.42 51.32 49.90 47.89 46.12 46.28 46.71 46.03 45.16 46.65 46.82 46.61 48.56 47.40 47.40 47.35 49.79 47.12 45.75 44.42 47.13 48.14 49.80 52.48 52.83 52.85 52.69 53.58 53.83 53.61 53.64 53.25 49.49 50.31 51.81 51.27 51.47 51.92 51.55 50.69 50.45 50.45 50.43 49.17 50.24 50.91 51.47 52.12 52.15 52.32 52.97
51.69 50.07 50.84 51.36 48.26 47.30 47.64 48.15 45.64 47.28 46.26 46.39 46.17 47.13 45.55 45.06 45.97 47.14 49.48 46.99 46.78 47.72 48.79 49.96 51.46 52.47 53.19 53.82 54.14 54.83 55.51 55.58 55.48 55.26 48.68 50.65 50.36 50.42 49.72 50.02 50.10 49.32 49.18 48.99 49.07 48.72 48.99 49.22 49.16 49.15 49.73 49.65 49.45 51.60
49.84 49.95 50.06 48.18 42.97 41.46 42.18 48.71 44.21 43.94 41.36 43.45 46.52 44.22 42.33 43.84 45.65 48.63 43.54 46.14 46.41 51.05 49.96 52.77 52.71 55.05 54.86 55.41 55.86 55.31 55.55 55.14 55.25 55.87 55.69 52.79 49.89 49.37 48.92 48.55 48.91 48.66 48.30 48.52 49.43 48.79 48.42 44.72 47.70 48.08 49.05 49.37 50.17 50.79
48.55 46.25 43.81 43.07 44.04 42.05 47.94 45.63 48.00 46.29 46.83 44.62 39.52 38.40 41.71 44.76 48.22 45.18 43.92 46.77 50.73 54.20 54.14 53.41 55.25 53.15 53.60 53.34 49.80 49.71 50.63 51.74 51.68 53.24 53.39 52.58 50.48 49.95 51.42 50.69 50.33 49.33 48.91 49.28 48.95 48.41 48.27 48.06 44.60 47.82 47.87 47.67 48.93 48.78
41.43 40.68 43.61 38.78 45.40 44.59 44.18 44.54 44.57 45.84 42.76 44.62 43.27 44.56 46.63 48.61 44.54 44.57 44.08 48.22 51.65 51.95 52.56 50.97 50.35 49.77 48.65 49.05 49.34 49.56 51.23 50.04 49.18 49.36 51.16 51.78 51.34 52.02 51.81 51.82 50.47 48.95 48.81 47.57 46.80 46.72 46.59 47.27 47.27 47.31 46.92 46.80 46.20 45.99
37.40 44.95 42.04 46.44 47.55 45.33 45.76 44.49 45.44 45.09 45.43 44.43 45.68 49.69 50.56 47.25 42.79 41.96 45.85 49.58 50.69 49.96 49.41 48.63 48.09 47.57 47.26 48.13 46.96 46.69 47.36 49.13 49.25 48.17 49.28 49.86 49.40 48.52 47.80 47.05 46.81 46.88 47.65 47.33 46.46 45.71 45.68 46.30 46.36 46.06 45.98 45.57 42.29 45.23
42.43 47.51 50.27 50.39 48.18 47.18 47.83 49.31 49.14 47.61 44.60 44.28 47.19 46.88 46.70 40.79 40.93 45.57 48.52 48.87 47.77 48.76 49.84 49.98 49.19 48.01 47.12 47.01 47.54 47.84 48.00 48.35 49.29 48.70 49.39 48.80 47.83 47.46 46.48 44.69 43.74 44.34 47.03 46.68 46.52 46.15 45.24 45.35 45.31 45.22 44.96 45.67 45.59 44.90
49.90 49.67 47.28 50.10 48.98 49.60 46.09 47.37 45.36 44.21 46.09 50.02 48.42 43.86 42.71 42.72 41.22 46.08 47.23 49.72 50.45 50.27 49.93 49.71 49.68 48.91 48.15 47.43 47.00 46.64 46.48 46.93 47.68 48.18 48.90 49.09 48.42 47.30 46.62 46.63 46.50 40.01 45.70 44.60 44.32 44.20 43.12 43.04 42.80 42.59 42.41 42.13 42.43 41.94
49.99 53.30 51.29 48.69 48.63 48.97 49.14 47.95 47.28 48.80 50.00 49.91 47.13 44.91 43.31 45.63 46.91 45.59 46.77 48.10 48.72 47.87 46.33 46.21 46.60 48.35 47.57 47.22 47.37 46.87 46.17 45.10 43.11 41.33 40.94 41.21 42.05 42.75 44.60 44.44 44.05 43.81 43.67 43.07 36.33 38.70 39.63 39.25 40.31 39.85 39.98 40.21 40.54 40.72
51.04 53.96 49.94 48.70 47.68 47.26 50.62 52.53 50.17 50.83 50.22 49.33 48.68 46.36 45.83 46.66 48.32 50.34 49.10 48.45 47.77 47.18 46.72 46.13 45.83 45.51 44.35 43.74 43.09 43.71 45.32 44.77 44.06 41.89 40.26 39.65 40.44 42.14 42.08 41.50 41.01 41.14 41.09 40.76 40.12 40.12 37.62 38.70 38.88 39.73 38.49 38.26 38.24 37.02
54.20 53.56 50.90 50.76 49.39 51.44 52.54 52.52 52.22 52.09 50.72 47.21 47.23 45.53 44.80 46.75 48.29 50.68 49.61 49.10 47.10 46.59 46.25 45.62 45.40 44.79 42.87 41.92 41.56 40.74 40.45 43.04 42.91 42.28 41.10 41.49 41.14 40.49 40.15 40.03 40.34 40.18 39.73 39.05 38.57 38.05 37.33 37.16 37.32 36.67 36.40 35.65 35.25 34.93
52.95 51.29 50.39 47.84 49.62 53.92 54.29 52.47 51.21 46.50 46.29 44.36 45.21 49.26 48.52 48.02 45.73 48.81 47.63 48.52 47.16 45.72 42.92 44.20 42.97 41.80 42.63 43.02 42.95 42.47 37.89 40.79 39.70 39.40 37.74 38.14 38.06 38.25 38.98 39.06 39.16 38.87 38.34 37.80 37.60 37.31 36.73 36.08 35.66 34.75 34.08 33.42 34.59 34.50
51.91 51.34 50.94 49.62 48.87 48.44 52.03 52.03 49.83 47.33 46.78 47.27 48.86 49.82 50.02 47.56 44.34 48.94 48.77 47.52 45.56 44.50 43.85 43.84 43.36 42.89 42.43 41.93 41.59 41.41 39.92 41.54 36.86 33.65 33.74 32.88 32.61 33.36 36.96 37.42 37.57 37.69 37.21 37.12 36.89 36.75 35.91 35.29 34.58 33.83 33.66 34.20 34.32 34.38
MSLP
1018.17 1017.41 1016.69 1016.08 1015.48 1014.91 1014.50 1014.01 1013.76 1013.50 1013.25 1013.07 1012.90 1012.76 1012.63 1012.68 1012.64 1013.13 1012.77 1012.86 1013.12 1012.02 1010.27 1009.30 1008.35 1007.85 1008.06 1007.30 1005.95 1005.60 1005.28 1004.42 1003.11 1001.11 998.24 995.25 992.85 991.57 991.16 990.74 991.70 992.05 992.21 992.02 992.93 993.73 994.11 995.05 994.02 993.84 993.77 992.32 991.09 990.26
1017.55 1016.77 1016.03 1015.35 1014.75 1014.32 1013.88 1013.56 1013.23 1012.98 1012.71 1012.51 1012.38 1012.30 1012.24 1012.26 1012.34 1012.57 1012.39 1011.83 1012.14 1011.92 1010.07 1008.61 1007.95 1007.66 1007.28 1007.19 1007.04 1006.62 1005.90 1005.32 1004.01 1002.44 999.83 997.79 994.73 992.26 991.72 990.90 991.51 991.54 991.67 992.17 994.12 994.04 995.56 995.71 995.91 994.97 994.54 993.40 992.12 991.64
1016.94 1016.24 1015.50 1014.73 1014.08 1013.64 1013.32 1013.01 1012.79 1012.52 1012.27 1012.00 1011.92 1011.91 1011.84 1011.91 1011.87 1012.09 1011.98 1011.65 1011.51 1010.88 1008.78 1006.63 1005.34 1004.94 1005.68 1006.15 1006.79 1006.38 1005.63 1005.27 1004.32 1004.01 1002.40 1000.42 997.71 995.26 993.67 992.22 992.16 993.16 993.15 993.69 995.13 995.71 996.24 996.79 996.79 995.95 995.98 995.16 994.25 993.83
1016.36 1015.73 1014.94 1014.06 1013.33 1013.00 1012.81 1012.62 1012.42 1012.16 1011.88 1011.75 1011.74 1011.59 1011.43 1011.49 1011.51 1011.62 1011.59 1011.23 1011.25 1010.47 1008.29 1004.83 1004.36 1004.28 1004.45 1004.56 1005.14 1005.62 1005.32 1005.24 1005.24 1004.55 1003.41 1001.56 999.12 996.96 995.74 995.50 994.89 995.83 995.49 995.18 995.82 997.09 997.18 997.57 997.96 997.85 997.87 997.01 996.15 995.67
1016.00 1015.34 1014.58 1013.93 1013.33 1012.94 1012.73 1012.42 1012.10 1011.84 1011.68 1011.61 1011.53 1011.35 1011.21 1011.16 1011.14 1011.11 1010.85 1010.37 1010.58 1010.66 1007.88 1005.58 1004.55 1003.19 1002.84 1003.84 1004.24 1004.84 1005.38 1005.77 1005.92 1004.94 1003.80 1001.96 999.90 998.86 997.77 997.91 998.85 999.54 998.34 996.53 996.25 997.63 998.36 999.15 999.54 999.82 998.53 997.56 997.17 996.73
1015.87 1015.23 1014.56 1014.10 1013.62 1013.12 1012.67 1012.23 1011.93 1011.74 1011.67 1011.57 1011.38 1011.18 1011.04 1010.91 1010.92 1010.28 1009.55 1010.53 1010.21 1009.99 1008.78 1005.70 1003.60 1002.76 1002.55 1002.85 1003.63 1004.26 1004.84 1005.43 1005.19 1003.57 1003.22 1002.55 1000.84 1000.16 999.57 1000.23 1001.29 1000.84 1000.00 999.48 998.47 999.15 1000.27 1000.39 1001.27 1000.76 999.74 999.07 998.56 998.02
1015.85 1015.33 1014.85 1014.31 1013.76 1013.28 1012.79 1012.35 1012.07 1011.91 1011.76 1011.59 1011.43 1011.19 1011.06 1010.98 1010.62 1010.06 1010.18 1010.14 1010.30 1009.84 1009.22 1006.70 1003.35 1002.01 1002.20 1002.43 1002.83 1003.35 1003.94 1003.89 1003.78 1002.44 1002.81 1002.68 1001.65 1000.74 1001.58 1001.93 1002.10 1001.66 1001.08 1000.40 1000.46 1000.84 1001.90 1002.38 1002.31 1002.03 1001.14 1000.08 999.62 999.54
1015.97 1015.50 1015.04 1014.49 1013.97 1013.56 1013.13 1012.73 1012.37 1012.08 1011.85 1011.60 1011.37 1011.19 1011.02 1010.71 1010.62 1009.92 1009.41 1010.26 1010.30 1009.97 1008.89 1006.89 1003.90 1001.91 1001.45 1000.71 1001.25 1002.12 1002.42 1003.07 1002.03 1001.39 1002.58 1002.38 1002.03 1001.92 1002.87 1003.31 1002.84 1002.89 1002.85 1002.49 1002.62 1002.49 1002.70 1003.53 1003.01 1003.13 1002.15 1001.28 1000.91 1001.33
1016.13 1015.61 1015.11 1014.61 1014.15 1013.73 1013.33 1012.94 1012.52 1012.12 1011.72 1011.34 1010.96 1010.72 1010.37 1010.05 1009.37 1008.91 1009.67 1009.93 1009.95 1010.14 1008.66 1006.41 1003.96 1001.66 1000.54 1000.01 1000.23 1000.93 1001.06 1001.26 1001.41 1001.14 1001.33 1001.94 1002.88 1003.46 1004.41 1004.25 1003.94 1003.43 1003.45 1003.66 1003.78 1003.78 1004.04 1003.88 1004.38 1004.15 1003.21 1002.08 1001.63 1001.79
1016.32 1015.74 1015.26 1014.85 1014.35 1013.93 1013.49 1013.02 1012.46 1011.83 1011.29 1010.81 1010.38 1009.54 1008.89 1008.90 1009.30 1009.11 1009.45 1009.01 1009.16 1008.99 1008.14 1005.78 1003.70 1002.17 1001.39 999.76 999.50 999.38 999.68 1000.89 1001.50 1001.19 1001.53 1003.01 1004.35 1005.34 1005.21 1005.15 1004.94 1004.76 1004.52 1004.31 1004.20 1004.68 1004.72 1004.17 1003.83 1003.66 1002.28 1002.16 1002.31 1001.86
1016.63 1016.11 1015.54 1015.01 1014.55 1014.07 1013.61 1013.10 1012.50 1011.61 1010.76 1010.49 1010.27 1009.70 1009.01 1008.93 1008.43 1007.81 1007.72 1007.55 1007.44 1006.70 1005.45 1004.30 1003.47 1002.49 1001.61 1000.78 999.38 998.52 998.22 999.47 1000.69 1001.09 1001.85 1003.44 1005.15 1005.68 1005.75 1005.63 1005.32 1004.95 1004.78 1005.14 1005.21 1005.14 1004.53 1004.07 1003.56 1003.04 1003.06 1002.96 1002.56 1002.07
1016.90 1016.38 1015.78 1015.17 1014.64 1014.14 1013.61 1013.09 1012.63 1011.83 1011.49 1011.77 1011.68 1010.94 1009.68 1008.35 1007.71 1007.42 1006.49 1006.09 1006.25 1004.64 1003.66 1003.18 1002.70 1002.40 1001.87 1001.47 999.80 998.59 997.73 998.15 999.47 1000.28 1001.25 1003.88 1005.65 1005.95 1005.72 1005.62 1005.49 1005.35 1005.39 1004.98 1004.80 1004.82 1004.39 1004.08 1003.58 1003.73 1003.75 1003.82 1003.26 1002.96
1016.96 1016.43 1015.79 1015.31 1014.82 1014.13 1013.46 1012.94 1012.47 1012.08 1011.32 1010.96 1011.02 1010.31 1009.39 1008.68 1008.08 1007.35 1006.45 1005.44 1004.74 1004.12 1003.24 1002.69 1002.04 1001.95 1001.27 1000.45 999.18 998.28 998.00 999.19 999.88 1000.90 1002.63 1004.67 1005.32 1005.98 1005.84 1005.71 1005.12 1004.95 1005.04 1005.22 1005.01 1004.77 1004.49 1004.27 1004.04 1004.04 1004.19 1003.82 1003.42 1003.69
1016.91 1016.27 1015.58 1015.17 1014.55 1013.71 1013.13 1012.49 1011.93 1011.58 1011.07 1010.78 1010.75 1010.45 1010.34 1009.48 1008.82 1007.73 1007.01 1006.12 1004.92 1003.99 1003.26 1002.75 1002.04 1002.20 1000.38 999.72 999.31 998.81 999.35 999.88 1000.84 1002.58 1004.18 1005.42 1005.64 1005.56 1005.65 1005.46 1004.94 1005.01 1005.06 1005.03 1004.86 1004.85 1004.54 1004.06 1003.78 1003.92 1003.99 1004.33 1003.79 1003.72
1016.65 1016.02 1015.30 1014.76 1014.15 1013.26 1012.87 1012.28 1011.84 1011.49 1011.23 1011.20 1011.58 1011.18 1010.50 1009.72 1008.41 1007.10 1006.25 1005.02 1004.30 1003.92 1003.38 1002.26 1002.12 1001.93 1000.70 1000.40 1000.59 1000.60 1000.89 1002.46 1003.71 1004.87 1005.24 1005.51 1005.57 1005.56 1005.61 1005.29 1005.23 1005.13 1005.04 1004.92 1004.78 1004.63 1004.43 1004.22 1003.88 1004.02 1004.17 1003.95 1003.92 1003.71
1016.29 1015.48 1014.76 1014.62 1013.90 1013.07 1012.51 1011.74 1011.35 1011.03 1010.92 1010.83 1010.89 1010.61 1009.72 1008.47 1007.31 1006.44 1005.91 1004.95 1004.38 1003.81 1003.24 1002.69 1002.43 1002.30 1002.42 1002.73 1003.22 1003.50 1004.38 1005.67 1005.81 1005.71 1006.06 1005.83 1005.75 1005.65 1005.57 1005.31 1005.10 1005.06 1004.90 1004.82 1004.73 1004.67 1004.41 1004.23 1004.28 1004.41 1004.28 1004.25 1003.95 1003.86
1016.03 1015.25 1015.05 1014.50 1013.71 1012.75 1012.38 1011.58 1010.89 1010.54 1010.26 1010.26 1010.28 1009.89 1009.35 1008.44 1007.84 1006.82 1006.24 1005.54 1004.86 1003.53 1003.12 1003.03 1003.40 1003.97 1003.90 1004.76 1005.86 1006.75 1007.55 1007.33 1006.74 1006.52 1006.29 1006.07 1005.79 1005.77 1005.52 1005.27 1005.11 1005.13 1005.12 1005.01 1004.74 1004.58 1004.56 1004.50 1004.21 1003.98 1003.86 1003.72 1003.58 1003.75
1015.93 1015.27 1015.02 1014.52 1013.74 1012.23 1011.64 1011.31 1010.74 1010.34 1010.30 1010.19 1009.85 1009.73 1009.37 1008.52 1008.04 1007.23 1006.90 1006.18 1005.21 1004.48 1003.97 1004.40 1004.81 1005.31 1006.01 1006.77 1007.26 1007.70 1007.59 1007.26 1006.97 1006.65 1006.36 1006.24 1006.21 1005.96 1005.65 1005.34 1005.16 1005.06 1005.05 1004.89 1004.74 1004.46 1004.33 1004.01 1003.58 1003.42 1003.50 1003.78 1003.48 1003.36
1016.37 1015.83 1015.21 1014.64 1014.17 1013.46 1012.11 1011.53 1011.50 1010.76 1010.66 1010.61 1010.53 1009.85 1009.35 1008.64 1008.41 1007.94 1007.15 1006.60 1006.16 1005.64 1005.03 1005.09 1005.84 1006.75 1007.45 1007.81 1007.84 1007.57 1007.46 1007.26 1007.03 1006.60 1006.53 1006.57 1006.25 1006.00 1005.92 1005.68 1005.41 1005.35 1005.30 1005.40 1005.29 1004.67 1004.48 1004.68 1004.42 1004.18 1003.97 1003.80 1003.52 1003.58
1015.91 1015.57 1015.17 1014.44 1014.03 1013.09 1012.31 1012.27 1012.15 1011.57 1011.23 1011.43 1010.77 1010.11 1009.46 1009.19 1008.70 1008.03 1007.55 1006.97 1006.22 1005.96 1006.12 1006.89 1007.56 1008.03 1008.00 1008.09 1008.02 1007.69 1007.45 1007.34 1007.15 1006.82 1006.81 1006.73 1006.22 1006.09 1006.35 1006.03 1005.93 1006.04 1005.61 1005.62 1005.66 1005.57 1005.18 1005.20 1005.12 1005.01 1005.14 1004.97 1004.53 1004.42
1015.45 1014.95 1014.68 1014.17 1013.58 1013.40 1013.25 1013.13 1012.41 1012.64 1012.29 1011.36 1011.10 1010.61 1010.05 1009.59 1009.13 1008.74 1008.45 1007.89 1007.54 1007.75 1007.96 1008.41 1008.41 1008.53 1008.80 1008.64 1008.47 1008.36 1008.03 1007.86 1007.78 1007.73 1007.55 1007.50 1007.23 1006.79 1006.79 1006.76 1006.70 1006.54 1006.38 1006.43 1006.34 1006.34 1006.38 1006.39 1006.31 1006.22 1005.80 1005.48 1005.68 1005.32
1015.81 1015.80 1014.91 1014.40 1013.98 1013.72 1013.61 1013.85 1013.54 1013.11 1012.49 1011.83 1011.43 1011.10 1010.70 1010.48 1010.27 1010.15 1010.03 1009.36 1009.65 1010.17 1010.08 1009.76 1009.34 1009.09 1008.87 1008.69 1008.57 1008.63 1008.49 1008.11 1007.94 1008.04 1008.19 1008.06 1007.48 1007.38 1007.45 1007.46 1007.25 1007.20 1007.37 1007.43 1007.36 1007.28 1007.19 1007.27 1007.30 1006.93 1006.39 1006.43 1006.11 1005.68
1016.37 1016.07 1015.23 1014.68 1014.31 1014.19 1014.31 1013.98 1013.36 1013.37 1012.87 1012.64 1012.14 1011.79 1011.94 1011.69 1011.83 1011.71 1011.54 1011.34 1011.50 1011.22 1011.14 1010.50 1010.09 1009.63 1009.32 1009.13 1009.00 1008.96 1008.69 1008.33 1008.20 1008.41 1008.37 1008.29 1008.29 1008.28 1008.26 1008.28 1008.10 1008.00 1007.95 1008.15 1008.14 1008.02 1007.88 1008.17 1007.79 1007.52 1007.10 1006.81 1006.47 1006.06
1016.75 1016.18 1015.47 1015.08 1014.66 1014.21 1013.91 1013.42 1013.36 1013.12 1012.93 1012.92 1013.08 1012.81 1012.69 1012.49 1012.30 1012.01 1011.77 1011.72 1011.51 1011.21 1010.96 1010.58 1010.27 1009.97 1009.41 1009.14 1009.07 1009.30 1009.01 1008.44 1008.06 1008.07 1008.31 1008.13 1008.13 1008.53 1008.54 1008.45 1008.44 1008.71 1008.84 1008.59 1008.47 1008.39 1008.23 1008.14 1008.27 1007.77 1007.58 1007.23 1006.96 1006.72
1016.56 1016.33 1015.75 1015.31 1014.80 1014.00 1013.23 1012.82 1012.79 1012.55 1012.47 1012.27 1012.31 1012.11 1012.09 1012.37 1011.92 1011.87 1012.06 1012.06 1011.72 1011.44 1011.05 1010.82 1010.51 1010.25 1010.00 1009.93 1009.87 1009.79 1009.88 1009.39 1008.94 1008.39 1008.68 1008.44 1008.49 1008.38 1008.31 1008.65 1008.93 1009.31 1009.44 1009.27 1009.09 1008.98 1008.83 1008.56 1008.33 1008.24 1008.15 1007.90 1008.08 1007.93
1015.74 1015.30 1015.15 1014.44 1013.98 1013.55 1012.97 1012.22 1012.06 1012.10 1011.99 1011.73 1011.63 1011.65 1011.76 1011.50 1011.43 1012.29 1012.83 1012.87 1012.60 1012.04 1011.76 1011.54 1011.22 1011.10 1011.15 1011.20 1011.04 1010.87 1010.70 1010.56 1010.13 1009.58 1009.83 1009.73 1009.49 1009.28 1009.15 1009.18 1009.21 1009.44 1010.38 1010.22 1010.01 1009.68 1009.41 1009.09 1008.86 1008.76 1008.57 1008.46 1008.43 1008.42
1014.68 1014.05 1014.05 1014.28 1013.91 1013.54 1012.64 1012.37 1012.25 1011.84 1011.27 1011.13 1011.28 1011.24 1011.19 1011.54 1012.41 1013.51 1013.70 1013.61 1013.20 1013.13 1012.85 1012.46 1012.25 1012.11 1012.11 1012.16 1012.14 1012.03 1011.70 1011.26 1011.02 1011.08 1011.05 1010.97 1011.17 1011.37 1011.28 1011.23 1011.31 1012.02 1011.50 1011.36 1010.89 1010.54 1010.31 1009.92 1009.64 1009.45 1009.27 1009.15 1009.00 1008.98
1014.00 1013.58 1013.04 1012.78 1012.89 1012.67 1012.02 1011.41 1011.19 1010.99 1010.92 1011.25 1011.50 1011.55 1012.30 1012.96 1014.41 1014.74 1014.55 1014.25 1013.89 1013.73 1013.63 1013.49 1013.32 1013.19 1013.06 1013.12 1013.16 1012.93 1012.57 1012.13 1011.58 1011.28 1010.74 1010.78 1011.19 1011.76 1012.51 1012.31 1012.44 1012.79 1012.37 1012.55 1012.39 1012.11 1012.03 1011.61 1011.25 1010.86 1010.55 1010.19 1009.90 1009.89
1013.04 1012.45 1012.77 1011.98 1011.71 1011.67 1011.40 1011.06 1010.83 1011.13 1011.63 1011.43 1011.80 1012.93 1014.49 1015.67 1015.99 1016.01 1016.10 1015.93 1015.87 1015.57 1015.19 1015.03 1014.63 1014.10 1013.90 1013.78 1013.41 1013.14 1013.25 1013.18 1012.88 1012.53 1012.24 1011.95 1012.17 1012.85 1013.37 1013.33 1013.21 1013.11 1012.94 1012.85 1013.20 1013.04 1013.07 1012.86 1012.34 1011.97 1011.48 1011.02 1010.72 1010.52
1011.80 1011.82 1011.56 1011.17 1010.95 1010.98 1011.40 1011.33 1011.54 1012.08 1012.53 1013.28 1014.23 1015.44 1016.49 1017.18 1017.57 1017.71 1017.29 1017.00 1016.61 1016.39 1015.61 1015.18 1015.20 1014.94 1014.58 1014.38 1014.27 1014.16 1013.82 1014.42 1014.49 1014.37 1013.85 1013.79 1013.99 1014.27 1014.33 1014.26 1014.11 1013.94 1013.78 1013.54 1013.23 1013.02 1013.03 1012.85 1012.15 1011.85 1011.80 1011.59 1011.31 1011.47
1011.75 1011.25 1010.87 1010.87 1011.04 1011.40 1011.73 1012.05 1012.63 1013.12 1013.88 1014.89 1015.82 1016.14 1016.60 1017.20 1017.61 1017.64 1017.41 1017.15 1016.76 1016.14 1015.84 1015.47 1015.25 1015.55 1015.59 1015.40 1015.34 1015.29 1015.13 1015.55 1015.90 1015.99 1016.16 1015.62 1015.54 1015.53 1015.43 1015.24 1014.95 1014.68 1014.44 1014.19 1013.85 1013.54 1013.48 1013.06 1012.66 1012.47 1012.24 1012.19 1012.12 1012.02
1011.31 1011.31 1011.09 1010.74 1011.08 1011.75 1012.10 1012.06 1012.63 1014.04 1014.91 1015.52 1015.94 1016.15 1016.28 1016.30 1016.43 1017.00 1017.32 1016.46 1016.12 1016.14 1016.52 1016.36 1016.34 1016.50 1016.82 1016.63 1016.65 1016.70 1017.35 1017.20 1017.57 1017.63 1017.86 1017.50 1017.21 1016.98 1016.32 1015.92 1015.61 1015.31 1015.00 1014.59 1014.23 1013.95 1013.82 1013.59 1013.30 1013.27 1013.03 1012.92 1012.47 1012.23
1010.90 1010.75 1010.83 1010.56 1010.54 1010.62 1011.31 1011.94 1012.61 1013.93 1014.58 1014.89 1015.28 1015.44 1015.34 1015.62 1016.13 1016.99 1017.45 1017.55 1017.50 1017.28 1017.23 1017.29 1017.39 1017.45 1017.68 1017.61 1017.66 1017.44 1017.52 1017.51 1018.33 1018.55 1018.65 1018.74 1018.58 1018.14 1017.21 1016.87 1016.50 1015.97 1015.51 1014.90 1014.58 1014.30 1014.08 1013.96 1013.72 1013.60 1013.37 1013.01 1012.69 1012.41
Wind_Speed
23 24 24 23 23 21 20 19 17 18 16 15 14 14 12 9 6 5 3 8 5 4 12 22 22 17 10 11 7 7 6 5 4 6 9 10 10 11 15 17 24 18 15 11 7 9 15 9 1 2 15 14 7 10
23 24 25 24 22 21 19 17 16 15 14 14 14 9 8 7 4 2 3 7 8 6 9 20 20 18 19 21 15 7 7 7 3 5 4 6 6 3 12 13 3 14 13 7 11 7 6 6 1 1 7 4 7 12
23 23 24 23 22 20 17 16 16 13 13 11 7 8 9 4 4 6 2 4 3 6 12 17 15 16 22 23 15 10 6 5 4 5 5 4 7 5 6 4 14 3 6 8 9 5 9 8 6 8 6 6 15 12
22 22 23 23 21 16 13 12 11 12 12 6 8 9 8 6 7 7 3 5 5 5 7 4 3 5 5 14 22 22 15 5 5 6 4 4 5 6 2 4 5 8 5 9 6 6 13 14 11 7 4 7 12 14
18 19 19 16 15 10 10 11 12 7 4 5 8 10 6 6 5 6 6 6 6 5 8 12 21 7 8 15 15 19 16 14 6 5 5 3 5 5 2 4 4 8 8 2 6 9 9 9 10 3 9 12 13 16
17 18 15 14 15 14 13 12 10 5 4 7 8 9 3 5 7 5 4 2 5 7 6 6 7 4 1 10 15 14 11 7 8 5 2 3 8 6 3 3 7 7 5 5 5 9 15 15 8 9 10 13 13 16
16 14 14 15 16 15 15 13 9 6 6 7 8 6 3 1 5 4 4 4 2 5 3 6 5 3 1 8 6 7 10 6 7 6 4 2 4 1 3 3 8 7 9 12 16 14 13 11 9 12 9 12 14 15
13 14 15 15 13 13 13 13 12 9 9 9 9 8 7 8 8 5 1 8 4 4 4 4 5 4 7 6 7 6 7 6 6 3 3 3 1 3 4 8 8 12 14 15 14 16 13 15 10 6 7 8 13 10
14 13 13 13 13 12 13 13 13 13 12 13 13 12 5 5 4 2 6 6 6 2 4 3 4 3 1 2 4 5 5 5 3 1 2 3 3 6 6 11 11 12 10 12 11 13 10 12 11 6 8 8 8 7
14 13 11 12 12 10 12 14 18 17 13 11 7 4 1 1 8 6 2 4 6 5 5 5 4 5 5 3 6 7 5 6 2 2 5 3 6 9 8 9 8 11 12 8 10 10 11 8 7 8 11 9 7 6
14 14 13 11 11 12 13 13 15 19 7 4 4 3 6 5 4 3 2 3 2 4 4 4 4 7 2 3 1 2 3 8 4 4 3 4 2 4 6 6 7 8 10 8 7 6 6 4 6 7 7 6 5 6
13 13 12 11 11 12 13 14 14 10 7 7 6 6 4 4 2 4 3 4 4 3 1 5 7 4 3 3 6 3 1 3 6 3 4 3 5 5 6 7 7 5 4 5 7 3 3 3 6 4 3 3 5 4
13 13 13 13 14 16 17 17 14 13 10 3 3 3 4 2 3 6 8 4 3 6 5 7 6 2 4 6 4 3 3 5 5 4 5 4 8 9 7 4 10 9 10 8 6 4 4 5 6 5 4 5 2 3
15 14 14 14 16 21 21 19 13 7 3 3 5 5 6 4 5 3 6 6 7 8 10 7 5 4 4 4 3 4 4 1 5 5 5 7 8 9 8 6 7 8 7 7 6 5 5 7 8 7 6 4 5 6
15 15 15 13 22 23 21 13 6 0 2 4 3 4 4 5 6 5 4 5 4 6 6 3 4 5 5 4 5 5 4 6 6 3 4 7 7 8 8 9 8 7 6 5 4 5 5 5 6 7 6 6 6 6
19 16 5 18 23 24 16 8 2 2 1 1 3 2 7 6 11 11 10 9 9 8 3 3 2 4 6 5 8 8 5 6 3 3 3 5 7 6 7 7 7 6 5 5 5 4 6 7 6 5 5 6 7 6
17 5 16 21 24 22 7 5 3 4 4 5 5 8 8 8 9 9 10 10 9 5 4 3 6 6 4 6 5 5 2 4 2 4 4 6 6 4 5 6 6 6 5 5 5 4 5 3 4 4 6 7 7 6
8 14 19 21 19 9 2 3 3 3 5 5 5 9 8 7 9 10 9 10 8 6 6 5 4 7 5 4 3 3 2 2 3 4 5 6 5 5 5 7 6 7 8 8 7 5 6 6 5 6 5 5 3 4
15 15 17 18 10 5 5 4 5 4 5 5 7 8 7 7 9 8 8 8 4 3 1 3 6 6 5 4 5 5 4 4 3 5 5 5 6 7 6 5 7 8 8 10 9 7 7 8 7 7 7 7 7 6
18 12 13 14 10 3 3 3 3 4 5 5 6 8 5 8 8 8 9 8 7 6 8 6 6 6 6 6 5 6 6 6 4 2 5 5 7 7 10 8 7 7 7 8 9 11 8 8 8 8 8 7 7 7
9 9 12 6 4 5 4 4 3 3 4 4 7 6 5 6 9 10 9 7 8 8 7 6 6 6 6 5 5 5 4 6 5 4 4 5 6 8 8 7 7 8 8 8 8 8 8 8 8 8 8 8 8 9
4 11 4 4 4 4 3 5 4 4 4 4 5 5 4 7 8 9 9 8 6 6 5 5 6 6 6 6 6 5 5 6 4 3 2 2 4 6 7 6 6 7 8 8 8 8 8 9 9 9 8 9 8 8
8 3 3 4 3 3 2 4 4 5 4 6 6 5 5 5 7 5 3 3 2 2 2 4 5 7 9 11 11 12 10 8 6 6 4 4 5 4 4 4 4 6 6 7 7 7 7 5 7 8 8 8 8 7
3 4 5 4 5 4 3 4 1 3 2 3 2 3 3 3 4 2 4 2 2 3 4 7 5 5 5 10 11 11 11 10 9 6 5 2 4 3 2 3 3 5 6 6 7 8 8 8 6 8 9 9 8 8
4 5 3 4 0 4 4 4 3 2 3 3 3 2 3 3 3 5 7 6 8 8 7 8 9 11 10 11 11 12 15 11 10 9 8 7 4 2 1 2 3 5 7 8 9 10 10 10 8 8 10 9 10 11
3 2 3 5 3 4 5 6 6 6 3 1 1 1 1 3 6 6 5 7 8 9 10 10 10 9 10 11 11 11 11 10 9 9 10 9 8 8 8 7 8 7 10 9 10 12 12 11 10 11 10 11 7 11
4 6 2 1 3 3 3 2 2 3 4 4 2 3 2 3 6 5 5 7 6 7 7 7 9 9 9 10 10 10 10 10 8 6 6 7 8 9 8 8 9 10 9 12 11 11 12 11 11 11 11 11 12 12
4 3 6 5 2 2 5 4 3 3 3 2 2 5 4 7 6 5 6 6 4 6 8 10 10 9 9 8 8 9 10 11 11 10 5 3 5 9 11 9 9 6 6 8 10 10 12 12 12 12 12 12 11 9
3 2 3 5 2 2 2 5 6 5 5 4 2 4 6 6 8 8 9 11 11 10 10 9 8 8 9 10 10 7 7 9 12 14 13 9 9 9 9 9 10 9 9 11 7 7 10 11 11 10 11 10 10 9
5 3 4 4 5 5 4 5 7 7 8 9 12 13 10 7 6 6 4 4 6 4 4 6 7 9 9 10 10 11 9 10 10 10 10 9 10 9 9 10 10 10 9 10 11 11 10 11 8 8 9 9 8 9
5 4 5 4 5 6 6 8 11 12 14 12 8 6 4 3 2 1 4 4 3 4 8 9 9 9 11 11 10 10 8 9 11 13 13 10 10 10 11 10 9 9 9 10 9 9 10 10 8 9 10 12 13 11
4 6 8 7 5 5 6 3 5 8 5 1 1 2 3 4 4 3 5 6 7 8 7 9 9 10 10 9 8 7 7 8 10 11 15 11 11 11 10 9 8 8 9 9 9 9 10 11 10 11 10 11 12 12
3 5 6 6 5 6 4 3 4 5 3 4 2 2 0 3 5 4 3 6 7 7 8 7 8 8 8 9 9 5 4 6 8 10 10 9 10 11 9 8 9 10 11 9 9 9 10 12 11 12 13 13 13 13
Wind_Direction
315 314 310 307 309 311 309 303 293 293 292 287 288 285 286 286 253 184 244 201 210 253 275 280 274 262 263 275 276 8 300 202 265 248 245 226 230 197 219 182 175 193 203 210 203 236 234 15 358 323 336 303 273 210
316 317 317 312 306 307 306 310 302 298 294 290 297 284 286 270 197 232 243 217 210 238 283 296 281 268 260 261 270 265 289 316 297 293 311 309 288 231 206 198 156 197 208 189 229 233 74 39 43 128 351 47 97 116
315 318 318 315 309 307 303 303 301 299 303 303 293 295 289 246 210 219 241 263 255 280 276 252 256 245 228 231 230 247 229 237 253 0 306 293 272 308 219 273 174 206 177 188 184 103 86 98 74 39 24 80 98 97
321 323 321 313 306 306 308 304 303 302 302 288 290 297 280 237 238 228 216 224 229 266 280 340 125 231 244 216 213 223 250 310 339 313 301 284 283 344 30 327 301 15 295 155 117 136 118 70 51 68 95 74 84 78
331 326 331 357 6 4 336 318 307 309 316 291 302 306 301 287 288 257 241 243 236 265 308 306 294 245 221 209 201 212 225 237 270 278 235 268 307 313 108 142 50 339 351 222 185 123 85 70 40 49 82 74 73 74
335 340 348 359 356 348 340 336 339 335 302 306 307 312 277 239 271 259 205 22 257 240 284 287 349 271 338 177 197 203 204 221 227 244 241 320 296 288 53 88 12 340 327 273 82 87 92 81 22 34 71 71 69 73
350 359 359 359 359 8 10 18 23 14 348 341 348 345 339 329 264 293 4 357 178 204 257 283 287 136 167 145 152 173 184 202 226 240 158 229 268 293 47 46 0 58 59 70 99 107 86 80 60 347 15 67 65 45
359 352 351 349 355 359 8 8 2 347 339 334 321 311 308 281 268 252 108 179 184 262 258 279 294 249 186 169 148 158 163 208 198 290 70 243 325 54 74 31 72 94 82 58 46 55 80 99 99 20 42 54 73 50
342 340 343 349 359 0 3 358 349 339 324 313 305 302 245 221 223 64 186 213 209 285 303 260 291 13 283 182 97 169 175 191 335 265 182 58 18 53 57 61 51 49 80 91 74 57 46 64 93 86 49 44 52 72
355 2 356 355 1 360 355 0 348 338 316 297 271 255 192 85 346 287 118 208 175 198 227 260 300 291 355 322 167 158 203 126 271 223 100 66 65 74 45 50 49 51 49 76 62 59 61 8 48 14 35 18 347 9
360 1 7 9 3 352 349 347 342 328 274 344 343 322 339 324 246 232 267 246 175 244 204 243 292 310 25 316 270 251 153 149 184 156 104 83 78 97 84 50 47 30 30 46 91 110 67 322 357 42 26 348 7 25
357 355 353 354 349 339 332 331 335 336 342 319 298 289 267 265 262 272 245 175 205 286 2 307 352 284 279 257 257 170 237 224 100 214 95 46 123 111 80 121 124 116 142 84 71 84 90 95 83 35 13 351 358 14
337 341 335 339 343 331 326 322 320 318 292 225 232 287 324 11 340 353 351 22 30 313 341 341 339 322 246 221 249 284 46 72 109 29 63 77 113 128 115 89 115 114 119 130 123 105 100 99 84 67 60 13 41 55
331 315 312 315 323 328 327 325 324 326 303 21 356 15 11 3 350 327 332 313 313 323 338 332 54 308 313 323 324 29 74 245 90 56 69 113 107 113 126 145 113 120 124 111 106 108 86 53 68 67 71 48 65 62
321 315 303 308 332 328 338 334 334 97 350 61 37 27 353 279 258 286 294 269 323 316 318 298 38 301 359 11 17 356 53 43 30 67 111 116 104 110 116 118 116 117 114 101 89 67 55 50 58 69 53 61 64 65
327 308 328 330 328 330 333 307 278 318 109 249 108 8 344 359 10 7 3 354 357 332 273 249 2 359 40 24 15 17 45 13 48 25 59 102 105 99 98 92 90 92 73 71 88 83 64 52 52 47 80 62 63 46
318 335 344 330 328 318 313 302 316 6 17 18 12 11 4 9 357 350 352 354 328 322 20 14 35 22 15 39 25 31 8 263 22 97 100 80 66 57 70 76 67 57 60 62 59 65 49 36 28 48 56 42 32 39
318 327 333 330 330 315 317 353 333 10 29 24 357 358 350 341 347 351 348 350 349 13 24 57 33 30 55 32 36 88 262 338 63 71 61 65 52 43 35 36 40 40 34 31 22 38 38 12 25 52 43 34 283 44
313 314 320 327 332 302 341 23 340 14 16 8 355 352 345 344 13 343 352 1 9 324 5 47 54 38 47 49 50 40 49 45 52 82 78 56 48 37 26 29 45 38 49 45 26 32 56 42 23 7 5 359 1 28
304 294 329 321 316 319 349 32 320 346 9 349 339 345 347 2 350 3 27 10 38 41 39 50 52 39 33 31 12 9 11 1 2 73 71 30 26 40 39 34 45 57 71 64 58 22 36 32 25 16 17 4 351 353
296 0 321 327 18 20 27 354 20 3 326 327 355 349 5 4 19 21 17 1 53 35 58 39 41 40 5 6 357 354 357 351 14 11 31 50 41 56 61 61 55 50 50 41 30 33 26 19 9 353 352 349 350 326
316 335 313 344 8 16 51 22 335 332 306 341 357 348 18 16 9 16 347 18 33 25 8 7 21 18 34 41 48 25 358 355 14 58 48 61 56 57 48 36 39 49 43 29 21 14 9 10 5 342 346 350 321 331
295 281 326 335 346 49 10 355 23 15 18 9 352 22 6 354 3 333 39 351 346 2 326 351 346 20 31 42 59 47 30 37 50 43 49 49 72 64 65 52 37 28 28 29 16 6 1 353 6 338 343 336 335 335
215 3 15 4 353 18 338 15 38 14 44 31 40 353 320 311 319 358 49 50 335 0 19 22 38 65 72 58 49 37 14 11 15 69 54 79 114 101 42 34 48 56 11 3 2 355 351 346 333 342 345 333 341 341
336 356 347 5 321 320 358 12 31 46 49 2 21 43 36 313 23 43 51 42 41 44 61 61 54 41 39 39 30 27 19 7 356 348 40 351 349 253 211 50 52 37 14 355 353 346 341 332 332 341 333 336 345 336
47 57 16 360 12 337 353 343 14 20 343 312 54 8 278 303 54 54 37 13 30 39 39 35 36 47 43 29 22 14 8 6 355 4 24 1 8 358 1 356 356 17 12 347 341 334 329 330 327 328 325 330 331 310
11 44 59 128 304 298 256 229 294 300 322 9 18 356 350 50 61 52 36 29 43 52 48 43 41 39 34 26 19 12 6 356 29 15 28 39 48 32 21 11 8 6 335 359 341 348 343 338 339 337 334 335 335 346
340 322 329 1 263 223 302 320 331 348 348 27 300 12 35 24 53 15 16 18 40 49 46 38 31 31 29 28 19 7 6 359 3 1 347 131 92 56 13 5 32 332 25 36 7 13 0 350 346 341 336 330 328 340
277 333 310 294 281 217 322 352 7 39 359 304 21 58 83 58 47 36 26 28 29 28 26 10 1 7 18 7 6 20 24 7 1 359 357 0 12 21 14 7 5 360 357 347 65 44 20 348 329 338 337 338 339 350
358 356 297 315 345 36 51 19 55 66 66 72 86 90 83 60 36 38 32 19 22 350 314 20 21 9 4 1 1 0 28 27 15 5 8 16 16 10 2 358 354 352 353 347 347 346 16 338 345 354 354 346 354 346
339 319 329 340 27 55 71 89 83 78 75 77 76 90 88 123 178 75 22 13 306 7 7 6 11 21 2 1 6 3 11 36 27 30 11 1 7 3 354 350 351 349 354 350 353 359 0 350 358 360 359 358 360 352
339 3 354 11 42 87 145 165 73 99 94 47 138 180 185 186 130 95 6 340 11 13 31 6 9 11 11 359 24 46 21 35 25 21 15 5 0 354 343 2 358 360 357 354 357 358 359 357 358 358 355 346 343 343
352 18 15 6 18 26 64 157 133 103 142 135 132 175 173 27 66 76 71 36 21 14 10 15 14 15 21 16 16 25 356 44 96 93 71 40 11 350 344 11 359 1 352 353 355 351 358 355 351 352 347 344 344 341